Location: Caltech
(34.1382°N, 118.1253°W)
Time: 08:34:50
(UTC-08:00)

SO-67 - Visible Passes

Search period start: 05 December 2016 00:00
Search period end: 15 December 2016 00:00
Orbit: 410 x 416 km, 97.1° (Epoch: 05 December)

Date Brightness Start Highest point End Pass type
(mag) Time Alt. Az. Time Alt. Az. Time Alt. Az.
05 Dec ? 17:10:39 10° E 17:12:02 12° ENE 17:13:26 10° NE visible
05 Dec ? 18:41:19 10° SSW 18:43:51 22° W 18:46:22 10° NW visible
06 Dec ? 06:01:09 10° NE 06:03:25 18° E 06:05:42 10° SE visible
06 Dec ? 17:54:32 10° SSE 17:57:38 61° ENE 18:00:47 10° N visible
07 Dec ? 17:10:22 10° E 17:11:43 12° ENE 17:13:04 10° NE visible
07 Dec ? 18:40:58 10° SSW 18:43:30 22° W 18:46:03 10° NW visible
08 Dec ? 06:00:49 10° NE 06:03:05 18° E 06:05:20 10° SE visible
08 Dec ? 17:54:10 10° SSE 17:57:17 60° ENE 18:00:25 10° N visible
09 Dec ? 17:10:02 10° E 17:11:20 12° ENE 17:12:39 10° NE visible
09 Dec ? 18:40:34 10° SSW 18:43:08 22° W 18:45:41 10° NW visible
10 Dec ? 06:00:26 10° NE 06:02:42 18° E 06:04:55 10° SE visible
10 Dec ? 17:53:47 10° SSE 17:56:54 59° ENE 18:00:01 10° N visible
11 Dec ? 17:09:40 10° E 17:10:55 12° ENE 17:12:11 10° NE visible
11 Dec ? 18:40:08 10° SSW 18:42:42 23° W 18:45:17 10° NW visible
12 Dec ? 06:00:02 10° NE 06:02:15 17° E 06:04:28 10° SE visible
12 Dec ? 17:53:21 10° SSE 17:56:27 57° ENE 17:59:34 10° N visible
13 Dec ? 18:39:39 10° SSW 18:42:14 23° W 18:44:50 10° NW visible
14 Dec ? 05:59:35 10° NE 06:01:47 17° E 06:03:58 10° SE visible
14 Dec ? 17:52:53 10° SSE 17:55:58 56° ENE 17:59:05 10° N visible
